Location: Bukov�
(49.6396°N, 12.9222°E)
Time: 17:05:13
(UTC+00:00)

Daily predictions for brighter satellites

Satellite Brightness Start Highest point End
(mag) Time Altitude Azimuth Time Altitude Azimuth Time Altitude Azimuth
USA 267 3.9 19:50:02 10° E 19:56:26 58° NNE 20:02:51 10° WNW
Meteor 1-21 Rocket 4.4 19:51:04 10° S 19:56:59 78° E 20:02:55 10° NNE
Alouette 2 Rocket 3.8 19:56:47 10° N 20:00:29 57° ENE 20:05:16 10° SSE
Cosmos 1953 Rocket 4.4 19:57:19 10° SSE 20:01:10 32° E 20:05:03 10° NNE
Cosmos 2322 Rocket 2.5 19:56:56 10° SW 20:02:32 73° WNW 20:08:11 10° NNE
SL-08 ROCKET BODY 4.4 19:57:26 10° S 20:03:23 84° E 20:09:29 10° N
NOSS 7 (D) 3.7 20:01:45 10° SSW 20:04:32 61° SE 20:07:12 10° NE
Cosmos 2237 4.2 19:59:32 10° SSW 20:05:14 73° ESE 20:10:59 10° NNE
Cosmos 2084 4.3 20:02:17 10° NW 20:06:38 46° NE 20:10:55 10° ESE
Cosmos 1328 4.0 20:03:36 10° S 20:07:28 53° E 20:11:21 10° NNE
SAR-Lupe-2 4.2 20:06:05 10° NNE 20:09:26 36° E 20:12:47 10° SSE
Cosmos 1455 2.6 20:07:46 10° NNW 20:11:35 62° W 20:15:23 10° S
Cosmos 1825 Rocket 3.6 20:12:23 10° S 20:16:48 69° E 20:21:15 10° NNE
ATLAS CENTAUR R/B 1.7 20:15:05 10° NNW 20:18:42 47° NE 20:22:14 10° ESE
Cosmos 1703 3.2 20:17:30 10° S 20:21:22 85° E 20:25:17 10° N
COSMOS 2428 3.4 20:17:29 10° S 20:22:30 34° ESE 20:27:33 10° NE
Cosmos 1844 3.9 20:18:00 10° NNW 20:23:49 77° WSW 20:29:30 10° SSE
Cosmos 2322 3.8 20:20:42 10° S 20:26:17 57° ESE 20:31:54 10° NE
Meteor 1-27 4.5 20:24:44 10° N 20:30:24 60° ENE 20:35:46 12° SSE
CZ-4B DEB 4.4 20:28:15 10° SSE 20:31:32 89° WSW 20:34:55 10° NNW
Cosmos 1709 Rocket 4.0 20:26:41 10° S 20:32:58 80° E 20:39:22 10° NNE
NOSS 3-3 (A) 4.3 20:29:22 10° S 20:34:50 42° ESE 20:40:55 10° NE
NOSS 3-3 (C) 4.3 20:29:29 10° S 20:34:57 42° ESE 20:41:02 10° NE
Terra 2.1 20:31:40 12° SSE 20:35:58 56° ENE 20:40:39 10° N
Atlas Centaur 2 4.2 20:33:22 10° SSW 20:36:22 14° S 20:38:47 11° SSE
Cosmos 2237 Rocket 3.7 20:33:11 12° SE 20:36:26 18° E 20:40:13 10° ENE
CARTOSAT-1 3.6 20:32:57 11° SSE 20:37:07 86° ENE 20:41:28 10° NNW
Cosmos 2333 4.2 20:32:29 10° SSW 20:38:04 67° ESE 20:43:45 10° NNE
Cosmos 2219 Rocket 2.4 20:33:09 10° S 20:38:29 48° ESE 20:43:52 10° NE
IGS 5A 4.3 20:36:23 10° S 20:40:23 46° W 20:44:25 10° NNW
Cosmos 2360 Rocket 2.6 20:34:47 10° SW 20:40:25 69° WNW 20:46:06 10° NNE
Cosmos 1538 Rocket 4.3 20:36:11 10° S 20:41:19 49° ESE 20:46:27 10° NNE
Cosmos 2333 Rocket 2.3 20:42:40 10° SSW 20:48:14 61° ESE 20:53:54 10° NE
Cosmos 1315 Rocket 2.9 20:46:50 10° N 20:50:56 79° ENE 20:54:13 16° SSE
ATLAS 2AS CENTAUR R/B 3.5 20:43:59 10° NW 20:51:34 53° NE 20:58:31 10° ESE
Resurs 01 Rocket 4.1 20:49:32 10° SW 20:52:32 18° W 20:55:33 10° NW
Cosmos-2242 4.2 20:50:14 10° NNW 20:54:17 39° W 20:58:21 10° SSW
Cosmos 1818 4.1 20:50:27 10° SW 20:55:51 65° NW 21:01:18 10° NE
Cosmos 773 Rocket 4.1 20:52:58 10° SSW 20:58:17 86° WNW 21:03:38 10° NNE
Cosmos 2221 2.8 20:55:04 10° N 20:59:24 56° ENE 21:02:29 18° SSE
SL-16 R/B 4.4 20:54:55 10° WSW 20:59:49 29° NW 21:04:45 10° NNE
ERS-1 Rocket 3.4 20:56:51 11° S 21:01:37 59° W 21:06:37 10° NNW
GEOS 3 Rocket 3.9 20:57:05 10° NE 21:02:30 79° NW 21:07:53 10° SW
USA 215 3.2 20:59:15 10° ENE 21:05:47 64° SE 21:12:17 10° SW
Cosmos 2278 Rocket 2.3 21:03:07 10° NNW 21:08:49 71° ENE 21:13:09 18° SE
Cosmos 1892 3.6 21:07:02 20° SE 21:08:57 32° E 21:12:22 10° NNE
ATLAS 5 CENTAUR R/B 2.5 21:08:24 10° WSW 21:12:34 53° NW 21:17:19 10° NE
Cosmos 1844 Rocket 4.2 21:08:33 10° NW 21:13:12 28° WSW 21:17:50 10° SSW
Gblst 52 Del rocket 4.4 21:09:39 10° WNW 21:15:18 66° SSW 21:20:33 15° SE
Cosmos 1943 Rocket 4.3 21:12:13 10° N 21:16:20 20° NE 21:20:24 10° E
SPOT 5 3.6 21:13:56 12° S 21:18:23 47° W 21:23:02 10° NNW
SL-16 R/B 3.9 21:18:55 13° ESE 21:20:50 15° E 21:24:01 10° ENE
Lacrosse 5 rocket 3.4 21:17:42 10° WNW 21:21:22 28° N 21:24:50 10° ENE
Cosmos 2056 Rocket 4.4 21:18:26 10° NNW 21:23:35 42° ENE 21:27:39 16° ESE
Nadezhda 3 Rocket 4.2 21:18:19 10° N 21:24:40 62° ENE 21:29:11 20° SSE
Cosmos 2058 3.1 21:25:00 23° SSE 21:27:23 54° E 21:31:26 10° NNE
Cosmos 2154 Rocket 4.2 21:23:04 19° SSE 21:27:28 54° E 21:33:31 10° NNE
BREEZE M DEB (TANK) 4.0 21:27:00 10° WSW 21:27:39 12° SW 21:27:39 12° SW
Cosmos 1408 3.4 21:29:06 25° SE 21:30:25 33° E 21:33:41 10° NNE
Meteor 2-17 Rocket 4.4 21:27:25 17° S 21:32:13 74° E 21:38:16 10° NNE
In-Cosmos 22 Rocket 4.1 21:29:55 19° S 21:33:47 70° E 21:39:06 10° NNE
Cosmos 2074 Rocket 4.0 21:29:15 14° S 21:34:46 89° W 21:41:02 10° N
TSX-5 3.6 21:32:02 10° NW 21:35:30 75° WSW 21:37:36 27° SSE
Cosmos 1076 Rocket 3.6 21:36:08 24° S 21:38:35 63° E 21:42:50 10° NNE
Cosmos 1680 Rocket 3.8 21:35:41 21° S 21:39:06 52° ESE 21:44:17 10° NNE
USA 267 3.3 21:34:04 17° SE 21:39:22 73° SW 21:45:57 10° WNW
CZ-4C R/B 4.3 21:38:52 10° NW 21:44:46 33° NNE 21:51:37 10° E
Cosmos 1842 Rocket 4.4 21:41:59 10° NNW 21:46:07 42° W 21:49:02 17° SSW
COSMOS 2455 4.2 21:43:13 10° NNW 21:48:44 35° NE 21:54:13 10° ESE
Cosmos 2151 3.8 21:47:18 25° SE 21:49:05 37° E 21:53:02 10° NNE
EO 1 Delta rocket 4.5 21:44:13 10° NNE 21:49:10 56° E 21:52:50 23° SSE
Cosmos 923 Rocket 4.0 21:52:20 16° SSW 21:56:36 89° SE 22:01:56 10° NNE
Cosmos 2327 Rocket 4.5 21:52:14 18° S 21:56:57 88° W 22:03:08 10° N
ATLAS CENTAUR R/B 2.8 21:54:32 10° WNW 21:57:17 20° WSW 21:58:26 17° SW
Cosmos 1825 2.5 21:58:09 32° SSE 21:59:30 50° E 22:03:12 10° NNE
ALOS 2 3.2 21:58:03 24° SE 22:00:23 47° ENE 22:04:37 10° N
Cosmos 1340 4.5 21:59:38 16° ESE 22:00:31 18° E 22:03:06 10° NE
Cosmos 2369 Rocket 4.0 21:56:20 10° NNW 22:00:58 26° NE 22:05:34 10° E
Cosmos 1151 Rocket 4.1 21:57:04 10° N 22:01:04 35° ENE 22:03:13 22° ESE
Cosmos 1980 3.6 21:56:55 16° SSW 22:01:29 80° ESE 22:07:10 10° NNE
Cosmos 44 4.0 22:05:14 26° SE 22:05:57 27° ESE 22:09:41 10° ENE
COSMOS 2428 3.6 22:01:08 10° SW 22:06:37 48° NW 22:12:08 10° NNE
Cosmos 371 Rocket 4.1 22:04:02 10° NNW 22:08:42 44° ENE 22:11:47 20° ESE
GP-B 3.8 22:05:14 10° NNE 22:09:30 42° E 22:11:23 27° SE
Cosmos 1295 Rocket 4.4 22:06:31 22° S 22:10:39 86° E 22:16:48 10° N
NOSS 0 Rocket 4.0 22:07:46 10° SW 22:13:56 78° WNW 22:20:10 10° NNE
Terra 3.8 22:10:33 10° SW 22:14:04 21° W 22:17:39 10° NW
Cosmos 1624 Rocket 4.0 22:08:54 10° NNW 22:14:11 84° WSW 22:16:57 28° SSE
NOSS 3-4 (A) 3.9 22:07:56 10° NW 22:14:49 69° SW 22:19:47 23° SSE
NOSS 3-4 (C) 3.9 22:08:02 10° NW 22:14:56 69° SW 22:19:55 23° SSE
SL-4 R/B 2.6 22:19:54 20° ENE 22:19:54 20° ENE 22:21:17 10° NNE
Cosmos 2237 Rocket 2.2 22:14:58 15° SSW 22:19:47 83° WNW 22:25:32 10° NNE
Genesis I 3.1 22:18:36 29° SSW 22:20:27 73° SE 22:24:21 10° NE
CREW DRAGON DEMO-1 DEB 4.1 22:22:53 27° E 22:22:53 27° E 22:24:35 10° E
Cosmos 2344 3.5 22:16:02 14° SSW 22:22:31 67° SE 22:30:33 10° NE
Cosmos 2219 Rocket 3.7 22:17:31 10° WSW 22:22:37 35° NW 22:27:46 10° NNE
Cosmos 1346 Rocket 4.3 22:28:04 21° ESE 22:29:05 23° E 22:32:14 10° NE
Thor Agena Rocket 3.7 22:24:48 10° N 22:29:54 68° WNW 22:33:18 21° SSW
DELTA 2 R/B (1) 4.4 22:25:55 10° SW 22:36:22 - ESE 22:30:03 28° S
Cosmos 2333 Rocket 4.0 22:27:55 10° WSW 22:32:55 30° NW 22:37:59 10° NNE
RESURS DK-1 4.5 22:36:00 10° N 22:39:22 23° NE 22:42:42 10° E
Cosmos 1515 Rocket 4.0 22:37:04 10° N 22:41:20 50° ENE 22:43:15 29° SE
BREEZE-M DEB (TANK) 2.0 22:38:38 10° W 22:41:22 39° WSW 22:41:22 39° WSW
ATLAS 2AS CENTAUR R/B 3.1 22:35:22 10° NW 22:42:37 52° WSW 22:46:25 26° S
EO 1 Del DPAF 4.1 22:39:25 10° N 22:43:01 44° WNW 22:44:59 23° SW
Cosmos 1766 Rocket 3.5 22:44:24 34° S 22:46:16 89° W 22:50:42 10° N
Cosmos 1328 Rocket 3.4 22:44:25 10° N 22:48:45 85° W 22:50:25 37° S
Gbstr 26 Del rocket 3.9 22:49:28 27° ESE 22:49:28 27° ESE 22:52:22 10° E
USA 215 3.8 22:42:21 10° ENE 22:48:50 62° NNW 22:55:16 10° W
Aureole 2 Rocket 2.5 22:46:15 10° NW 22:48:58 43° WSW 22:48:59 43° WSW
Okean 3 Rocket 3.6 22:47:02 31° SSW 22:49:05 74° W 22:53:33 10° N
Cosmos 1606 2.9 22:47:14 10° NNW 22:51:05 60° W 22:52:19 38° SSW
Cosmos 2278 Rocket 3.8 22:48:06 10° NW 22:52:21 22° W 22:54:59 16° SW
Cosmos 2297 3.8 22:48:38 10° NNW 22:54:20 66° WSW 22:57:11 30° S
Cosmos 2218 Rocket 4.0 22:50:54 27° S 22:54:35 84° E 23:00:55 10° N
Cosmos 304 Rocket 4.3 22:50:26 10° NNW 22:55:13 55° ENE 22:58:03 23° SE
Cosmos 864 Rocket 4.5 22:52:05 28° S 22:55:35 79° E 23:01:55 10° NNE
Cosmos 2228 Rocket 4.0 22:52:35 10° N 22:56:59 42° ENE 22:59:19 24° SE
Cosmos 1420 Rocket 4.1 22:52:52 10° NNW 22:58:07 69° WSW 23:00:36 31° S
Cosmos 2366 rocket 4.0 22:56:35 27° S 23:00:16 87° E 23:06:40 10° N
Cosmos 1943 Rocket 2.3 22:55:22 10° NNW 23:01:04 76° ENE 23:04:40 23° SE
Lacrosse 5 rocket 2.2 22:57:18 10° NW 23:01:13 46° NNE 23:04:54 10° E
Cosmos 1633 3.1 23:01:11 38° SE 23:02:01 46° E 23:05:31 10° NNE
Landsat 4 4.3 22:59:22 10° NNE 23:03:01 44° E 23:03:59 36° SE
SL-16 R/B 2.1 23:00:47 26° SSW 23:04:05 86° ESE 23:09:49 10° NNE
Cosmos 1959 Rocket 4.5 23:06:20 27° SSW 23:09:54 80° W 23:16:09 10° N
YAOGAN 11 4.0 23:09:09 36° SSE 23:10:56 89° SW 23:15:24 10° NNW
Cosmos 1743 Rocket 3.8 23:12:36 35° SSE 23:14:11 57° E 23:18:27 10° NNE
Cosmos 332 Rocket 3.8 23:14:43 10° NNW 23:19:30 66° WSW 23:21:28 34° S
Cosmos 1048 Rocket 4.3 23:19:32 31° S 23:21:53 56° ESE 23:27:02 10° NNE
USA 267 4.4 23:21:25 22° SSW 23:23:08 24° SW 23:28:18 10° WNW
Meteor 2-3 Rocket 3.8 23:21:02 28° SSW 23:24:07 77° WNW 23:29:52 10° N
Helios 1A 3.4 23:24:53 35° SSW 23:26:14 50° W 23:30:19 10° NNW
Cosmos 405 2.9 23:24:46 10° NNW 23:28:19 73° W 23:29:08 49° S
Meteor 1-29 4.4 23:25:34 10° NE 23:28:26 25° E 23:29:10 23° ESE
Meteor 1-10 Rocket 4.5 23:26:47 10° N 23:32:21 63° ENE 23:35:50 23° SSE
Cosmos 1452 Rocket 3.8 23:27:45 10° NNW 23:32:52 52° WSW 23:35:06 31° SSW
CZ-4C R/B 3.1 23:27:20 10° NW 23:34:22 78° NE 23:42:34 10° SE
Meteor 2-6 Rocket 4.2 23:29:18 10° N 23:34:49 77° ENE 23:37:54 27° SSE
PSLV R/B 3.6 23:30:45 10° NNE 23:34:57 66° ESE 23:36:34 36° S
Cosmos 389 Rocket 4.5 23:32:04 10° NNE 23:34:58 23° ENE 23:37:05 14° ESE
COSMOS 2455 2.9 23:29:06 10° NW 23:35:05 64° WSW 23:38:24 27° SSE
Cosmos 1340 3.6 23:34:23 27° WSW 23:35:50 40° WNW 23:39:25 10° N
Cosmos 1110 Rocket 4.1 23:31:36 10° NNW 23:36:54 77° ENE 23:40:16 23° SSE
ALOS 2 4.3 23:35:27 18° WSW 23:36:58 22° W 23:40:22 10° NW
Cosmos 1408 Rocket 4.3 23:35:56 27° SW 23:37:57 45° WNW 23:42:12 10° N
SL-16 R/B 3.8 23:32:44 10° SE 23:38:18 36° ENE 23:43:56 10° N
Cosmos 1151 Rocket 4.5 23:34:53 10° NNW 23:38:30 26° W 23:40:03 21° WSW
Cosmos 1603 4.1 23:36:25 28° S 23:39:05 50° ESE 23:44:36 10° NE
Cosmos 1727 Rocket 4.4 23:38:38 10° NNW 23:44:40 53° W 23:48:04 26° SSW
APEX 4.2 23:42:50 10° WNW 23:44:21 20° W 23:44:21 20° W
Resurs 1-4 Rocket 3.9 23:41:14 10° NE 23:45:16 22° E 23:48:44 12° SE
Cosmos 2369 Rocket 2.1 23:39:58 10° NNW 23:45:35 75° WSW 23:48:49 26° SSE
Cosmos 1500 Rocket 3.6 23:44:49 34° SSW 23:46:41 72° W 23:51:05 10° N
Cosmos 44 3.9 23:43:38 16° WSW 23:46:55 47° NW 23:51:16 10° NNE
SeaSat 1 3.8 23:45:04 10° NE 23:49:13 26° ESE 23:51:20 20° SE
ISS -1.7 23:51:00 17° ESE 23:51:00 17° ESE 23:52:29 10° E
Helios 1B rocket 2.4 23:49:35 10° NNE 23:53:45 85° ESE 23:55:23 36° S
